This is the latest recevied weather packets stored in our database for station/object K5UBE. If no packets are shown the sender has not sent any weather packets the latest 10 day(s).
| Time | Temp. | Humidity | Pressure | Rain* | Wind** | Luminosity | Snow |
|---|---|---|---|---|---|---|---|
| 1777986479 | 13.33° C | 55% | 1012.1 hPa | 0 mm | - | - | - |
| 1777986178 | 13.33° C | 55% | 1012 hPa | 0 mm | - | - | - |
| 1777985874 | 13.33° C | 55% | 1012.2 hPa | 0 mm | - | - | - |
| 1777985572 | 13.33° C | 54% | 1012.1 hPa | 0 mm | - | - | - |
| 1777985268 | 13.89° C | 54% | 1012.1 hPa | 0 mm | - | - | - |
| 1777984965 | 13.89° C | 54% | 1011.8 hPa | 0 mm | - | - | - |
| 1777984660 | 14.44° C | 52% | 1011.5 hPa | 0 mm | - | - | - |
| 1777984357 | 14.44° C | 51% | 1011.8 hPa | 0 mm | - | - | - |
| 1777984054 | 14.44° C | 51% | 1011.6 hPa | 0 mm | - | - | - |
| 1777983751 | 15° C | 49% | 1011.4 hPa | 0 mm | - | - | - |
| 1777983448 | 15° C | 48% | 1011.3 hPa | 0 mm | - | - | - |
| 1777983144 | 15.56° C | 47% | 1011.3 hPa | 0 mm | - | - | - |
| 1777982841 | 15.56° C | 44% | 1011.2 hPa | 0 mm | - | - | - |
| 1777982537 | 16.67° C | 39% | 1011.1 hPa | 0 mm | - | - | - |
| 1777982235 | 17.22° C | 36% | 1011 hPa | 0 mm | - | - | - |
| 1777981934 | 18.33° C | 31% | 1010.9 hPa | 0 mm | - | - | - |
| 1777981631 | 18.33° C | 31% | 1010.5 hPa | 0 mm | - | - | - |
| 1777981326 | 18.33° C | 30% | 1010.5 hPa | 0 mm | - | - | - |
| 1777981023 | 18.33° C | 30% | 1010.6 hPa | 0 mm | - | - | - |
| 1777980720 | 18.33° C | 30% | 1010.4 hPa | 0 mm | - | - | - |
| 1777980416 | 18.33° C | 30% | 1010.1 hPa | 0 mm | - | - | - |
| 1777980114 | 18.33° C | 30% | 1009.8 hPa | 0 mm | - | - | - |
| 1777979813 | 18.33° C | 29% | 1009.5 hPa | 0 mm | - | - | - |
| 1777979509 | 18.33° C | 29% | 1009.9 hPa | 0 mm | - | - | - |
| 1777979206 | 18.33° C | 29% | 1009.8 hPa | 0 mm | - | - | - |
* Rain latest hour (hover to see other rain measurements)
** Current wind speed in m/s (hover to see current wind gust speed)